Back to catalog

STARLINK-37127

AliveCommunicationsVLEO
NORAD 68236·PAYLOAD·🇺🇸 United States

Launched Mar 17, 2026 from Vandenberg Space Force Base

Loading…

Next Passes (next 24 hours)

TLE

FreshSource: CelesTrak SupGP

Epoch: Sep 15, 2026, 04:28 UTC

1 68236C 26054E   26258.18659722  .00013935  00000+0  41166-3 0  2584
2 68236  53.1557 126.8872 0001161  85.5359 244.4043 15.34386862    19

Track STARLINK-37127 in real time with AllMySat

Download on the App Store